Stündliche Wetter Bolshie Kalmyki

Heute, 21 April, Mittwoch

Zeit Temperatur Niederschläge Wind Luftdruck Luftfeuchtigkeit
00:00 -1°C° 0.1 mm 5 m/S 733 mmHg 97%
01:00 -1°C° 0.9 mm 4 m/S 732 mmHg 98%
02:00 -1°C° 0.9 mm 4 m/S 731 mmHg 98%
03:00 0°C° 0.9 mm 3 m/S 730 mmHg 99%
04:00 0°C° 0.8 mm 3 m/S 730 mmHg 99%
05:00 -1°C° 0.8 mm 3 m/S 730 mmHg 99%
06:00 -1°C° 0.8 mm 2 m/S 729 mmHg 99%
07:00 0°C° 0.2 mm 3 m/S 730 mmHg 99%
08:00 0°C° 0.2 mm 3 m/S 730 mmHg 99%
09:00 0°C° 0.2 mm 3 m/S 731 mmHg 99%
10:00 +1°C° 0 mm 3 m/S 731 mmHg 97%
11:00 0°C° 0 mm 4 m/S 732 mmHg 96%
12:00 0°C° 0 mm 4 m/S 732 mmHg 94%
13:00 +1°C° 0 mm 4 m/S 733 mmHg 92%
14:00 +3°C° 0 mm 4 m/S 733 mmHg 91%
15:00 +3°C° 0 mm 4 m/S 734 mmHg 89%
16:00 +3°C° 0 mm 4 m/S 734 mmHg 90%
17:00 +3°C° 0 mm 3 m/S 735 mmHg 91%
18:00 +3°C° 0 mm 3 m/S 735 mmHg 91%
19:00 +3°C° 0 mm 3 m/S 736 mmHg 92%
20:00 +4°C° 0 mm 2 m/S 736 mmHg 92%
21:00 +4°C° 0 mm 2 m/S 737 mmHg 92%
22:00 +4°C° 0 mm 2 m/S 737 mmHg 92%
23:00 +4°C° 0 mm 2 m/S 737 mmHg 92%

Morgen, 22 April, Donnerstag

Zeit Temperatur Niederschläge Wind Luftdruck Luftfeuchtigkeit
00:00 +4°C° 0 mm 2 m/S 737 mmHg 92%
01:00 +4°C° 0 mm 2 m/S 737 mmHg 92%
02:00 +4°C° 0 mm 2 m/S 738 mmHg 92%
03:00 +4°C° 0 mm 2 m/S 738 mmHg 92%
04:00 +3°C° 0 mm 2 m/S 738 mmHg 93%
05:00 +3°C° 0 mm 2 m/S 739 mmHg 94%
06:00 +3°C° 0 mm 2 m/S 739 mmHg 94%
07:00 +3°C° 0 mm 3 m/S 739 mmHg 91%
08:00 +4°C° 0 mm 4 m/S 740 mmHg 87%
09:00 +5°C° 0 mm 4 m/S 740 mmHg 83%
10:00 +6°C° 0.1 mm 5 m/S 740 mmHg 78%
11:00 +7°C° 0.1 mm 5 m/S 740 mmHg 73%
12:00 +8°C° 0.1 mm 5 m/S 741 mmHg 67%
13:00 +9°C° 0.1 mm 5 m/S 740 mmHg 64%
14:00 +11°C° 0.1 mm 4 m/S 740 mmHg 61%
15:00 +12°C° 0.1 mm 4 m/S 740 mmHg 57%
16:00 +12°C° 0 mm 4 m/S 740 mmHg 60%
17:00 +12°C° 0 mm 4 m/S 740 mmHg 63%
18:00 +12°C° 0 mm 4 m/S 740 mmHg 66%
19:00 +10°C° 0 mm 4 m/S 740 mmHg 71%
20:00 +8°C° 0 mm 4 m/S 740 mmHg 77%
21:00 +7°C° 0 mm 4 m/S 740 mmHg 83%
22:00 +7°C° 0 mm 4 m/S 740 mmHg 85%
23:00 +7°C° 0 mm 4 m/S 740 mmHg 87%

übermorgen, 23 April, Freitag

Zeit Temperatur Niederschläge Wind Luftdruck Luftfeuchtigkeit
00:00 +6°C° 0 mm 4 m/S 740 mmHg 89%
01:00 +6°C° 0 mm 4 m/S 740 mmHg 90%
02:00 +6°C° 0 mm 4 m/S 740 mmHg 90%
03:00 +6°C° 0 mm 4 m/S 740 mmHg 90%
04:00 +6°C° 0 mm 4 m/S 740 mmHg 89%
05:00 +6°C° 0 mm 4 m/S 740 mmHg 88%
06:00 +6°C° 0 mm 4 m/S 740 mmHg 86%
07:00 +7°C° 0 mm 4 m/S 740 mmHg 82%
08:00 +8°C° 0 mm 5 m/S 740 mmHg 78%
09:00 +9°C° 0 mm 5 m/S 740 mmHg 74%
10:00 +11°C° 0 mm 6 m/S 740 mmHg 65%
11:00 +14°C° 0 mm 6 m/S 740 mmHg 56%
12:00 +15°C° 0 mm 7 m/S 740 mmHg 46%
13:00 +15°C° 0 mm 7 m/S 740 mmHg 47%
14:00 +15°C° 0 mm 7 m/S 739 mmHg 48%
15:00 +16°C° 0 mm 7 m/S 739 mmHg 48%
16:00 +15°C° 0 mm 7 m/S 739 mmHg 50%
17:00 +15°C° 0 mm 6 m/S 739 mmHg 53%
18:00 +14°C° 0 mm 6 m/S 738 mmHg 55%
19:00 +13°C° 0 mm 6 m/S 738 mmHg 59%
20:00 +11°C° 0 mm 6 m/S 738 mmHg 64%
21:00 +9°C° 0 mm 6 m/S 738 mmHg 68%
22:00 +9°C° 0 mm 5 m/S 737 mmHg 72%
23:00 +9°C° 0 mm 5 m/S 737 mmHg 75%

24 April, Samstag

Zeit Temperatur Niederschläge Wind Luftdruck Luftfeuchtigkeit
00:00 +8°C° 0 mm 5 m/S 736 mmHg 79%
01:00 +8°C° 0 mm 5 m/S 736 mmHg 82%
02:00 +7°C° 0 mm 5 m/S 735 mmHg 85%
03:00 +7°C° 0 mm 5 m/S 735 mmHg 88%
04:00 +6°C° 0.2 mm 5 m/S 735 mmHg 89%
05:00 +6°C° 0.2 mm 5 m/S 734 mmHg 91%
06:00 +5°C° 0.2 mm 4 m/S 734 mmHg 92%
07:00 +3°C° 1 mm 5 m/S 734 mmHg 93%
08:00 +2°C° 1 mm 5 m/S 735 mmHg 94%
09:00 +1°C° 1 mm 5 m/S 735 mmHg 95%
10:00 +3°C° 0.3 mm 4 m/S 735 mmHg 88%
11:00 +4°C° 0.3 mm 4 m/S 735 mmHg 80%
12:00 +5°C° 0.3 mm 4 m/S 735 mmHg 73%
13:00 +6°C° 0.1 mm 4 m/S 735 mmHg 68%
14:00 +6°C° 0.1 mm 4 m/S 735 mmHg 62%
15:00 +7°C° 0.1 mm 4 m/S 735 mmHg 57%
16:00 +7°C° 0.4 mm 4 m/S 735 mmHg 60%
17:00 +6°C° 0.4 mm 4 m/S 735 mmHg 63%
18:00 +6°C° 0.4 mm 4 m/S 735 mmHg 66%
19:00 +5°C° 0.2 mm 4 m/S 735 mmHg 70%
20:00 +4°C° 0.2 mm 4 m/S 735 mmHg 73%
21:00 +3°C° 0.2 mm 4 m/S 736 mmHg 77%
22:00 +3°C° 0 mm 4 m/S 736 mmHg 80%
23:00 +1°C° 0 mm 4 m/S 736 mmHg 82%

25 April, Sonntag

Zeit Temperatur Niederschläge Wind Luftdruck Luftfeuchtigkeit
00:00 0°C° 0 mm 4 m/S 736 mmHg 84%
01:00 +1°C° 0 mm 3 m/S 736 mmHg 86%
02:00 0°C° 0 mm 3 m/S 736 mmHg 88%
03:00 0°C° 0 mm 3 m/S 736 mmHg 90%
04:00 0°C° 0 mm 3 m/S 736 mmHg 90%
05:00 -1°C° 0 mm 3 m/S 737 mmHg 90%
06:00 -1°C° 0 mm 3 m/S 737 mmHg 90%
07:00 +1°C° 0 mm 3 m/S 737 mmHg 84%
08:00 +1°C° 0 mm 4 m/S 737 mmHg 78%
09:00 +3°C° 0 mm 4 m/S 737 mmHg 72%
10:00 +4°C° 0.2 mm 4 m/S 737 mmHg 66%
11:00 +5°C° 0.2 mm 4 m/S 738 mmHg 60%
12:00 +6°C° 0.2 mm 4 m/S 738 mmHg 55%
13:00 +6°C° 0.4 mm 5 m/S 738 mmHg 54%
14:00 +6°C° 0.4 mm 5 m/S 738 mmHg 53%
15:00 +7°C° 0.4 mm 5 m/S 738 mmHg 52%
16:00 +7°C° 0.2 mm 5 m/S 738 mmHg 53%
17:00 +7°C° 0.2 mm 4 m/S 738 mmHg 55%
18:00 +6°C° 0.2 mm 4 m/S 738 mmHg 56%
19:00 +5°C° 0.1 mm 3 m/S 738 mmHg 62%
20:00 +4°C° 0.1 mm 3 m/S 738 mmHg 67%
21:00 +4°C° 0.1 mm 2 m/S 739 mmHg 73%
22:00 +4°C° 0 mm 2 m/S 739 mmHg 75%
23:00 +2°C° 0 mm 3 m/S 739 mmHg 77%

26 April, Montag

Zeit Temperatur Niederschläge Wind Luftdruck Luftfeuchtigkeit
00:00 +2°C° 0 mm 3 m/S 739 mmHg 80%
01:00 +2°C° 0 mm 3 m/S 738 mmHg 81%
02:00 +1°C° 0 mm 3 m/S 738 mmHg 83%
03:00 +2°C° 0 mm 2 m/S 738 mmHg 84%
04:00 +2°C° 0.1 mm 2 m/S 738 mmHg 87%
05:00 +2°C° 0.1 mm 2 m/S 738 mmHg 90%
06:00 +2°C° 0.1 mm 2 m/S 738 mmHg 93%
07:00 +3°C° 0 mm 2 m/S 738 mmHg 89%
08:00 +4°C° 0 mm 2 m/S 738 mmHg 84%
09:00 +5°C° 0 mm 2 m/S 738 mmHg 79%
10:00 +5°C° 0.1 mm 2 m/S 738 mmHg 78%
11:00 +5°C° 0.1 mm 2 m/S 738 mmHg 77%
12:00 +6°C° 0.1 mm 2 m/S 738 mmHg 77%
13:00 +7°C° 0.1 mm 2 m/S 738 mmHg 71%
14:00 +8°C° 0.1 mm 2 m/S 738 mmHg 66%
15:00 +9°C° 0.1 mm 2 m/S 737 mmHg 60%
16:00 +9°C° 0.1 mm 2 m/S 737 mmHg 61%
17:00 +9°C° 0.1 mm 2 m/S 737 mmHg 62%
18:00 +8°C° 0.1 mm 3 m/S 736 mmHg 63%
19:00 +8°C° 0.1 mm 3 m/S 736 mmHg 67%
20:00 +7°C° 0.1 mm 3 m/S 736 mmHg 71%
21:00 +5°C° 0.1 mm 4 m/S 736 mmHg 76%
22:00 +4°C° 0 mm 4 m/S 736 mmHg 78%
23:00 +4°C° 0 mm 4 m/S 735 mmHg 79%
Mehr zeigen

Wir brauchen deine Erlaubnis

Meteoprog und unser Service Anbieter werden persönliche Daten aufbewahren, so wie Cookies, Geräte Bezeichnung oder ähnliche Technologien von deinem Gerät und Prozess, so wie Persönliche Daten Inhalte und Werbungen, genauso wie social Media und den Verkehr zu analysieren.

  • Aufbewahrung und/oder Zugang zu deiner Geräte Informationen.

    Cookies, Geräte Bezeichnung oder andere Informationen, können aufbewahrt oder Zugang zu deinem Gerät erhalten, für den Grund, der oben angegeben wird.

  • Personalisierte Werbung und Inhalte, Messungen, Einblick in das Publikum und Produkt Entwicklung.

    Werbungen und Inhalte können personalisiert werden, basierend auf ein Profil. Mehr Daten können besser personalisierte Werbungen und Inhalte hinzufügen. Werbung und Inhalte können gezeigt und gemessen werden. Einblicke über das Publikum, welche die Werbung gesehen haben und den Inhalt, können abgeleitet werden. So wie Daten können genutzt werden, um es zu verbessern oder die Benutzer Erfahrung zu verbessern das System und die Software.

Wenn du “Ich stimme zu” klickst, erlaubst du uns, die Cookies zu benutzen die Geräte Bezeichnung, den Web oder ähnliche Technologien zu benutzen. Deine Settings, können in deinem Gerät bei deinem Browser geändert werden.

Für den bestimmten Zweck, berechtigten Interessen beruhen darauf, mehr als auf den Inhalt. Du kannst mehr darüber in unseren Privaten und Cookie Politik lesen.